Skip to main content Skip to accessibility
This website is not compatible with your web browser. You should install a newer browser. If you live in Jersey and need help upgrading call the States of Jersey web team on 440099.
Homegov.je

L'înformâtion et les sèrvices publyis pouor I'Île dé Jèrri

  • Choose the service you want to log in to:

  • gov.je

    Update your notification preferences

  • one.gov.je

    Access government and parish services

  • CAESAR

    Clear goods through customs or claim relief

  • Talentlink

    View or update your States of Jersey job application

Local METARs

METAR EGJJ 140920Z 08012KT 9999 -RA SCT007 BKN037 14/13 Q1003

METAR EGJB 140920Z 08008KT 9000 -RA FEW006 14/13 Q1004 RERA

METAR EGJA 140920Z 08012KT 9999 -RA FEW010 SCT018 14/13 Q1004

METAR LFRD 140900Z AUTO 10005KT 070V130 5000 BR OVC003 14/14 Q1003 TEMPO RADZ BKN003 SCT060CB

METAR LFRC 140900Z AUTO 09010KT 4900 -DZ BR BKN004 OVC010 14/13 Q1004 TEMPO RA BKN007 SCT060CB

 

 

 

​Times are in Greenwich Mean Time (GMT) and not British Summer Time (BST). They will be one hour different during BST.

Back to top
rating button